owner,sensor,date,latitude,longitude,vertical_datum,sea_water_temperature,qcFlag 
SCCF RECON,ioos:station:SCCF:13:1,2019-01-01T05:00:00Z,26.5255,-82.0032,2.33,22.11,11111222 
SCCF RECON,ioos:station:SCCF:13:1,2019-01-01T06:00:00Z,26.5255,-82.0032,2.33,22.18,11111222 
SCCF RECON,ioos:station:SCCF:13:1,2019-01-01T07:00:00Z,26.5255,-82.0032,2.33,22.16,11111222 
SCCF RECON,ioos:station:SCCF:13:1,2019-01-01T08:00:00Z,26.5255,-82.0032,2.33,22.24,11111222 
SCCF RECON,ioos:station:SCCF:13:1,2019-01-01T09:00:00Z,26.5255,-82.0032,2.33,22.34,11111222 
SCCF RECON,ioos:station:SCCF:13:1,2019-01-01T10:00:00Z,26.5255,-82.0032,2.33,22.47,11111222 
SCCF RECON,ioos:station:SCCF:13:1,2019-01-01T11:00:00Z,26.5255,-82.0032,2.33,22.51,11111222 
SCCF RECON,ioos:station:SCCF:13:1,2019-01-01T12:00:00Z,26.5255,-82.0032,2.33,22.48,11111222 
SCCF RECON,ioos:station:SCCF:13:1,2019-01-01T13:00:00Z,26.5255,-82.0032,2.33,22.46,11111222 
SCCF RECON,ioos:station:SCCF:13:1,2019-01-01T14:00:00Z,26.5255,-82.0032,2.33,22.29,11111222 
SCCF RECON,ioos:station:SCCF:13:1,2019-01-01T15:00:00Z,26.5255,-82.0032,2.33,22.18,11111222 
SCCF RECON,ioos:station:SCCF:13:1,2019-01-01T16:00:00Z,26.5255,-82.0032,2.33,22.42,11111222 
SCCF RECON,ioos:station:SCCF:13:1,2019-01-01T17:00:00Z,26.5255,-82.0032,2.33,22.5,11111222 
SCCF RECON,ioos:station:SCCF:13:1,2019-01-01T18:00:00Z,26.5255,-82.0032,2.33,22.6,11111222 
SCCF RECON,ioos:station:SCCF:13:1,2019-01-01T19:00:00Z,26.5255,-82.0032,2.33,22.65,11111222 
SCCF RECON,ioos:station:SCCF:13:1,2019-01-01T20:00:00Z,26.5255,-82.0032,2.33,22.66,11111222 
SCCF RECON,ioos:station:SCCF:13:1,2019-01-01T21:00:00Z,26.5255,-82.0032,2.33,23.12,11111222 
SCCF RECON,ioos:station:SCCF:13:1,2019-01-01T22:00:00Z,26.5255,-82.0032,2.33,23.45,11111222 
SCCF RECON,ioos:station:SCCF:13:1,2019-01-02T05:00:00Z,26.5255,-82.0032,2.33,22.49,11111222 
SCCF RECON,ioos:station:SCCF:13:1,2019-01-02T06:00:00Z,26.5255,-82.0032,2.33,22.63,11111222 
SCCF RECON,ioos:station:SCCF:13:1,2019-01-02T07:00:00Z,26.5255,-82.0032,2.33,22.85,11111222 
SCCF RECON,ioos:station:SCCF:13:1,2019-01-02T08:00:00Z,26.5255,-82.0032,2.33,22.9,11111222 
SCCF RECON,ioos:station:SCCF:13:1,2019-01-02T09:00:00Z,26.5255,-82.0032,2.33,22.97,11111222 
SCCF RECON,ioos:station:SCCF:13:1,2019-01-02T10:00:00Z,26.5255,-82.0032,2.33,23.11,11111222 
SCCF RECON,ioos:station:SCCF:13:1,2019-01-02T11:00:00Z,26.5255,-82.0032,2.33,23.12,11111222 
SCCF RECON,ioos:station:SCCF:13:1,2019-01-02T12:00:00Z,26.5255,-82.0032,2.33,23.09,11111222 
SCCF RECON,ioos:station:SCCF:13:1,2019-01-02T13:00:00Z,26.5255,-82.0032,2.33,23.05,11111222 
SCCF RECON,ioos:station:SCCF:13:1,2019-01-02T14:00:00Z,26.5255,-82.0032,2.33,23.04,11111222 
SCCF RECON,ioos:station:SCCF:13:1,2019-01-02T15:00:00Z,26.5255,-82.0032,2.33,22.9,11111222 
SCCF RECON,ioos:station:SCCF:13:1,2019-01-02T16:00:00Z,26.5255,-82.0032,2.33,23.06,11111222 
SCCF RECON,ioos:station:SCCF:13:1,2019-01-02T17:00:00Z,26.5255,-82.0032,2.33,23.24,11111222 
SCCF RECON,ioos:station:SCCF:13:1,2019-01-02T18:00:00Z,26.5255,-82.0032,2.33,23.25,11111222 
SCCF RECON,ioos:station:SCCF:13:1,2019-01-02T19:00:00Z,26.5255,-82.0032,2.33,23.29,11111222 
SCCF RECON,ioos:station:SCCF:13:1,2019-01-02T20:00:00Z,26.5255,-82.0032,2.33,23.52,11111222 
SCCF RECON,ioos:station:SCCF:13:1,2019-01-02T21:00:00Z,26.5255,-82.0032,2.33,23.09,11111222 
SCCF RECON,ioos:station:SCCF:13:1,2019-01-02T22:00:00Z,26.5255,-82.0032,2.33,23.43,11111222 
SCCF RECON,ioos:station:SCCF:13:1,2019-01-03T05:00:00Z,26.5255,-82.0032,2.33,22.94,11111222 
SCCF RECON,ioos:station:SCCF:13:1,2019-01-03T06:00:00Z,26.5255,-82.0032,2.33,22.87,11111222 
SCCF RECON,ioos:station:SCCF:13:1,2019-01-03T07:00:00Z,26.5255,-82.0032,2.33,22.95,11111222 
SCCF RECON,ioos:station:SCCF:13:1,2019-01-03T08:00:00Z,26.5255,-82.0032,2.33,23.0,11111222 
SCCF RECON,ioos:station:SCCF:13:1,2019-01-03T09:00:00Z,26.5255,-82.0032,2.33,23.08,11111222 
SCCF RECON,ioos:station:SCCF:13:1,2019-01-03T10:00:00Z,26.5255,-82.0032,2.33,23.2,11111222 
SCCF RECON,ioos:station:SCCF:13:1,2019-01-03T11:00:00Z,26.5255,-82.0032,2.33,23.39,11111222 
SCCF RECON,ioos:station:SCCF:13:1,2019-01-03T12:00:00Z,26.5255,-82.0032,2.33,23.47,11111222 
SCCF RECON,ioos:station:SCCF:13:1,2019-01-03T13:00:00Z,26.5255,-82.0032,2.33,23.48,11111222 
SCCF RECON,ioos:station:SCCF:13:1,2019-01-03T14:00:00Z,26.5255,-82.0032,2.33,23.47,11111222 
SCCF RECON,ioos:station:SCCF:13:1,2019-01-03T15:00:00Z,26.5255,-82.0032,2.33,23.54,11111222 
SCCF RECON,ioos:station:SCCF:13:1,2019-01-03T16:00:00Z,26.5255,-82.0032,2.33,23.43,11111222 
SCCF RECON,ioos:station:SCCF:13:1,2019-01-03T17:00:00Z,26.5255,-82.0032,2.33,23.69,11111222 
SCCF RECON,ioos:station:SCCF:13:1,2019-01-03T18:00:00Z,26.5255,-82.0032,2.33,23.76,11111222 
SCCF RECON,ioos:station:SCCF:13:1,2019-01-03T19:00:00Z,26.5255,-82.0032,2.33,24.0,11111222 
SCCF RECON,ioos:station:SCCF:13:1,2019-01-03T20:00:00Z,26.5255,-82.0032,2.33,24.03,11111222 
SCCF RECON,ioos:station:SCCF:13:1,2019-01-03T21:00:00Z,26.5255,-82.0032,2.33,23.9,11111222 
SCCF RECON,ioos:station:SCCF:13:1,2019-01-03T22:00:00Z,26.5255,-82.0032,2.33,23.89,11111222 
SCCF RECON,ioos:station:SCCF:13:1,2019-01-04T05:00:00Z,26.5255,-82.0032,2.33,23.57,11111222 
SCCF RECON,ioos:station:SCCF:13:1,2019-01-04T06:00:00Z,26.5255,-82.0032,2.33,23.42,11111222 
SCCF RECON,ioos:station:SCCF:13:1,2019-01-04T07:00:00Z,26.5255,-82.0032,2.33,23.39,11111222 
SCCF RECON,ioos:station:SCCF:13:1,2019-01-04T08:00:00Z,26.5255,-82.0032,2.33,23.48,11111222 
SCCF RECON,ioos:station:SCCF:13:1,2019-01-04T09:00:00Z,26.5255,-82.0032,2.33,23.54,11111222 
SCCF RECON,ioos:station:SCCF:13:1,2019-01-04T10:00:00Z,26.5255,-82.0032,2.33,23.6,11111222 
SCCF RECON,ioos:station:SCCF:13:1,2019-01-04T11:00:00Z,26.5255,-82.0032,2.33,23.65,11111222 
SCCF RECON,ioos:station:SCCF:13:1,2019-01-04T12:00:00Z,26.5255,-82.0032,2.33,23.77,11111222 
SCCF RECON,ioos:station:SCCF:13:1,2019-01-04T13:00:00Z,26.5255,-82.0032,2.33,23.85,11111222 
SCCF RECON,ioos:station:SCCF:13:1,2019-01-04T14:00:00Z,26.5255,-82.0032,2.33,23.91,11111222 
SCCF RECON,ioos:station:SCCF:13:1,2019-01-04T15:00:00Z,26.5255,-82.0032,2.33,23.9,11111222 
SCCF RECON,ioos:station:SCCF:13:1,2019-01-04T16:00:00Z,26.5255,-82.0032,2.33,23.95,11111222 
SCCF RECON,ioos:station:SCCF:13:1,2019-01-04T17:00:00Z,26.5255,-82.0032,2.33,24.0,11111222 
SCCF RECON,ioos:station:SCCF:13:1,2019-01-04T18:00:00Z,26.5255,-82.0032,2.33,23.88,11111222 
SCCF RECON,ioos:station:SCCF:13:1,2019-01-04T19:00:00Z,26.5255,-82.0032,2.33,23.95,11111222 
SCCF RECON,ioos:station:SCCF:13:1,2019-01-04T20:00:00Z,26.5255,-82.0032,2.33,24.03,11111222 
SCCF RECON,ioos:station:SCCF:13:1,2019-01-04T21:00:00Z,26.5255,-82.0032,2.33,24.11,11111222 
SCCF RECON,ioos:station:SCCF:13:1,2019-01-04T22:00:00Z,26.5255,-82.0032,2.33,24.12,11111222 
SCCF RECON,ioos:station:SCCF:13:1,2019-01-05T05:00:00Z,26.5255,-82.0032,2.33,23.87,11111222 
SCCF RECON,ioos:station:SCCF:13:1,2019-01-05T06:00:00Z,26.5255,-82.0032,2.33,23.81,11111222 
SCCF RECON,ioos:station:SCCF:13:1,2019-01-05T07:00:00Z,26.5255,-82.0032,2.33,23.72,11111222 
SCCF RECON,ioos:station:SCCF:13:1,2019-01-05T08:00:00Z,26.5255,-82.0032,2.33,23.83,11111222 
SCCF RECON,ioos:station:SCCF:13:1,2019-01-05T09:00:00Z,26.5255,-82.0032,2.33,23.8,11111222 
SCCF RECON,ioos:station:SCCF:13:1,2019-01-05T10:00:00Z,26.5255,-82.0032,2.33,23.79,11111222 
SCCF RECON,ioos:station:SCCF:13:1,2019-01-05T11:00:00Z,26.5255,-82.0032,2.33,23.78,11111222 
SCCF RECON,ioos:station:SCCF:13:1,2019-01-05T12:00:00Z,26.5255,-82.0032,2.33,23.76,11111222 
SCCF RECON,ioos:station:SCCF:13:1,2019-01-05T13:00:00Z,26.5255,-82.0032,2.33,23.85,11111222 
SCCF RECON,ioos:station:SCCF:13:1,2019-01-05T14:00:00Z,26.5255,-82.0032,2.33,23.85,11111222 
SCCF RECON,ioos:station:SCCF:13:1,2019-01-05T15:00:00Z,26.5255,-82.0032,2.33,23.9,11111222 
SCCF RECON,ioos:station:SCCF:13:1,2019-01-05T16:00:00Z,26.5255,-82.0032,2.33,23.83,11111222 
SCCF RECON,ioos:station:SCCF:13:1,2019-01-05T17:00:00Z,26.5255,-82.0032,2.33,23.51,11111222 
SCCF RECON,ioos:station:SCCF:13:1,2019-01-05T18:00:00Z,26.5255,-82.0032,2.33,23.73,11111222 
SCCF RECON,ioos:station:SCCF:13:1,2019-01-05T19:00:00Z,26.5255,-82.0032,2.33,23.64,11111222 
SCCF RECON,ioos:station:SCCF:13:1,2019-01-05T20:00:00Z,26.5255,-82.0032,2.33,23.51,11111222 
SCCF RECON,ioos:station:SCCF:13:1,2019-01-05T21:00:00Z,26.5255,-82.0032,2.33,23.53,11111222 
SCCF RECON,ioos:station:SCCF:13:1,2019-01-05T22:00:00Z,26.5255,-82.0032,2.33,23.67,11111222 
SCCF RECON,ioos:station:SCCF:13:1,2019-01-06T05:00:00Z,26.5255,-82.0032,2.33,22.92,11111222 
SCCF RECON,ioos:station:SCCF:13:1,2019-01-06T06:00:00Z,26.5255,-82.0032,2.33,22.7,11111222 
SCCF RECON,ioos:station:SCCF:13:1,2019-01-06T07:00:00Z,26.5255,-82.0032,2.33,22.65,11111222 
SCCF RECON,ioos:station:SCCF:13:1,2019-01-06T08:00:00Z,26.5255,-82.0032,2.33,22.57,11111222 
SCCF RECON,ioos:station:SCCF:13:1,2019-01-06T09:00:00Z,26.5255,-82.0032,2.33,22.25,11111222 
SCCF RECON,ioos:station:SCCF:13:1,2019-01-06T10:00:00Z,26.5255,-82.0032,2.33,21.93,11111222 
SCCF RECON,ioos:station:SCCF:13:1,2019-01-06T11:00:00Z,26.5255,-82.0032,2.33,21.81,11111222 
SCCF RECON,ioos:station:SCCF:13:1,2019-01-06T12:00:00Z,26.5255,-82.0032,2.33,21.65,11111222 
SCCF RECON,ioos:station:SCCF:13:1,2019-01-06T13:00:00Z,26.5255,-82.0032,2.33,21.75,11111222 
SCCF RECON,ioos:station:SCCF:13:1,2019-01-06T14:00:00Z,26.5255,-82.0032,2.33,21.82,11111222 
SCCF RECON,ioos:station:SCCF:13:1,2019-01-06T15:00:00Z,26.5255,-82.0032,2.33,21.85,11111222 
SCCF RECON,ioos:station:SCCF:13:1,2019-01-06T16:00:00Z,26.5255,-82.0032,2.33,21.96,11111222 
SCCF RECON,ioos:station:SCCF:13:1,2019-01-06T17:00:00Z,26.5255,-82.0032,2.33,21.7,11111222 
SCCF RECON,ioos:station:SCCF:13:1,2019-01-06T18:00:00Z,26.5255,-82.0032,2.33,21.51,11111222 
SCCF RECON,ioos:station:SCCF:13:1,2019-01-06T19:00:00Z,26.5255,-82.0032,2.33,21.91,11111222 
SCCF RECON,ioos:station:SCCF:13:1,2019-01-06T20:00:00Z,26.5255,-82.0032,2.33,21.71,11111222 
SCCF RECON,ioos:station:SCCF:13:1,2019-01-06T21:00:00Z,26.5255,-82.0032,2.33,21.84,11111222 
SCCF RECON,ioos:station:SCCF:13:1,2019-01-06T22:00:00Z,26.5255,-82.0032,2.33,21.86,11111222 
SCCF RECON,ioos:station:SCCF:13:1,2019-01-07T05:00:00Z,26.5255,-82.0032,2.33,21.64,11111222 
SCCF RECON,ioos:station:SCCF:13:1,2019-01-07T06:00:00Z,26.5255,-82.0032,2.33,21.47,11111222 
SCCF RECON,ioos:station:SCCF:13:1,2019-01-07T09:00:00Z,26.5255,-82.0032,2.33,21.37,11111222 
SCCF RECON,ioos:station:SCCF:13:1,2019-01-07T10:00:00Z,26.5255,-82.0032,2.33,20.92,11111222 
SCCF RECON,ioos:station:SCCF:13:1,2019-01-07T11:00:00Z,26.5255,-82.0032,2.33,20.6,11111222 
SCCF RECON,ioos:station:SCCF:13:1,2019-01-07T12:00:00Z,26.5255,-82.0032,2.33,20.71,11111222 
SCCF RECON,ioos:station:SCCF:13:1,2019-01-07T13:00:00Z,26.5255,-82.0032,2.33,20.89,11111222 
SCCF RECON,ioos:station:SCCF:13:1,2019-01-07T14:00:00Z,26.5255,-82.0032,2.33,21.03,11111222 
SCCF RECON,ioos:station:SCCF:13:1,2019-01-07T15:00:00Z,26.5255,-82.0032,2.33,21.13,11111222 
SCCF RECON,ioos:station:SCCF:13:1,2019-01-07T16:00:00Z,26.5255,-82.0032,2.33,21.28,11111222 
SCCF RECON,ioos:station:SCCF:13:1,2019-01-07T17:00:00Z,26.5255,-82.0032,2.33,21.26,11111222 
SCCF RECON,ioos:station:SCCF:13:1,2019-01-07T18:00:00Z,26.5255,-82.0032,2.33,21.21,11111222 
SCCF RECON,ioos:station:SCCF:13:1,2019-01-07T19:00:00Z,26.5255,-82.0032,2.33,21.47,11111222 
SCCF RECON,ioos:station:SCCF:13:1,2019-01-07T20:00:00Z,26.5255,-82.0032,2.33,21.57,11111222 
SCCF RECON,ioos:station:SCCF:13:1,2019-01-07T21:00:00Z,26.5255,-82.0032,2.33,21.65,11111222 
SCCF RECON,ioos:station:SCCF:13:1,2019-01-07T22:00:00Z,26.5255,-82.0032,2.33,21.69,11111222 
SCCF RECON,ioos:station:SCCF:13:1,2019-01-08T05:00:00Z,26.5255,-82.0032,2.33,21.53,11111222 
SCCF RECON,ioos:station:SCCF:13:1,2019-01-08T06:00:00Z,26.5255,-82.0032,2.33,21.56,11111222 
SCCF RECON,ioos:station:SCCF:13:1,2019-01-08T07:00:00Z,26.5255,-82.0032,2.33,21.33,11111222 
SCCF RECON,ioos:station:SCCF:13:1,2019-01-08T08:00:00Z,26.5255,-82.0032,2.33,21.26,11111222 
SCCF RECON,ioos:station:SCCF:13:1,2019-01-08T09:00:00Z,26.5255,-82.0032,2.33,21.24,11111222 
SCCF RECON,ioos:station:SCCF:13:1,2019-01-08T10:00:00Z,26.5255,-82.0032,2.33,21.24,11111222 
SCCF RECON,ioos:station:SCCF:13:1,2019-01-08T11:00:00Z,26.5255,-82.0032,2.33,21.05,11111222 
SCCF RECON,ioos:station:SCCF:13:1,2019-01-08T12:00:00Z,26.5255,-82.0032,2.33,21.17,11111222 
SCCF RECON,ioos:station:SCCF:13:1,2019-01-08T13:00:00Z,26.5255,-82.0032,2.33,21.12,11111222 
SCCF RECON,ioos:station:SCCF:13:1,2019-01-08T14:00:00Z,26.5255,-82.0032,2.33,21.33,11111222 
SCCF RECON,ioos:station:SCCF:13:1,2019-01-08T15:00:00Z,26.5255,-82.0032,2.33,21.52,11111222 
SCCF RECON,ioos:station:SCCF:13:1,2019-01-08T16:00:00Z,26.5255,-82.0032,2.33,21.69,11111222 
SCCF RECON,ioos:station:SCCF:13:1,2019-01-08T17:00:00Z,26.5255,-82.0032,2.33,21.68,11111222 
SCCF RECON,ioos:station:SCCF:13:1,2019-01-08T18:00:00Z,26.5255,-82.0032,2.33,21.78,11111222 
SCCF RECON,ioos:station:SCCF:13:1,2019-01-08T19:00:00Z,26.5255,-82.0032,2.33,21.81,11111222 
SCCF RECON,ioos:station:SCCF:13:1,2019-01-08T20:00:00Z,26.5255,-82.0032,2.33,21.91,11111222 
SCCF RECON,ioos:station:SCCF:13:1,2019-01-08T21:00:00Z,26.5255,-82.0032,2.33,21.94,11111222 
SCCF RECON,ioos:station:SCCF:13:1,2019-01-08T22:00:00Z,26.5255,-82.0032,2.33,21.92,11111222 
SCCF RECON,ioos:station:SCCF:13:1,2019-01-09T05:00:00Z,26.5255,-82.0032,2.33,21.78,11111222 
SCCF RECON,ioos:station:SCCF:13:1,2019-01-09T06:00:00Z,26.5255,-82.0032,2.33,21.74,11111222 
SCCF RECON,ioos:station:SCCF:13:1,2019-01-09T07:00:00Z,26.5255,-82.0032,2.33,21.75,11111222 
SCCF RECON,ioos:station:SCCF:13:1,2019-01-09T08:00:00Z,26.5255,-82.0032,2.33,21.61,11111222 
SCCF RECON,ioos:station:SCCF:13:1,2019-01-09T09:00:00Z,26.5255,-82.0032,2.33,21.58,11111222 
SCCF RECON,ioos:station:SCCF:13:1,2019-01-09T10:00:00Z,26.5255,-82.0032,2.33,21.56,11111222 
SCCF RECON,ioos:station:SCCF:13:1,2019-01-09T11:00:00Z,26.5255,-82.0032,2.33,21.35,11111222 
SCCF RECON,ioos:station:SCCF:13:1,2019-01-09T12:00:00Z,26.5255,-82.0032,2.33,21.41,11111222 
SCCF RECON,ioos:station:SCCF:13:1,2019-01-09T13:00:00Z,26.5255,-82.0032,2.33,21.27,11111222 
SCCF RECON,ioos:station:SCCF:13:1,2019-01-09T14:00:00Z,26.5255,-82.0032,2.33,21.6,11111222 
SCCF RECON,ioos:station:SCCF:13:1,2019-01-09T17:00:00Z,26.5255,-82.0032,2.33,21.93,11111222 
SCCF RECON,ioos:station:SCCF:13:1,2019-01-09T19:00:00Z,26.5255,-82.0032,2.33,21.87,11111222 
SCCF RECON,ioos:station:SCCF:13:1,2019-01-09T20:00:00Z,26.5255,-82.0032,2.33,21.93,11111222 
SCCF RECON,ioos:station:SCCF:13:1,2019-01-09T21:00:00Z,26.5255,-82.0032,2.33,21.89,11111222 
SCCF RECON,ioos:station:SCCF:13:1,2019-01-09T22:00:00Z,26.5255,-82.0032,2.33,21.79,11111222 
SCCF RECON,ioos:station:SCCF:13:1,2019-01-10T05:00:00Z,26.5255,-82.0032,2.33,21.37,11111222 
SCCF RECON,ioos:station:SCCF:13:1,2019-01-10T06:00:00Z,26.5255,-82.0032,2.33,21.11,11111222 
SCCF RECON,ioos:station:SCCF:13:1,2019-01-10T07:00:00Z,26.5255,-82.0032,2.33,20.76,11111222 
SCCF RECON,ioos:station:SCCF:13:1,2019-01-10T08:00:00Z,26.5255,-82.0032,2.33,20.89,11111222 
SCCF RECON,ioos:station:SCCF:13:1,2019-01-10T09:00:00Z,26.5255,-82.0032,2.33,20.81,11111222 
SCCF RECON,ioos:station:SCCF:13:1,2019-01-10T10:00:00Z,26.5255,-82.0032,2.33,20.66,11111222 
SCCF RECON,ioos:station:SCCF:13:1,2019-01-10T11:00:00Z,26.5255,-82.0032,2.33,20.28,11111222 
SCCF RECON,ioos:station:SCCF:13:1,2019-01-10T12:00:00Z,26.5255,-82.0032,2.33,19.69,11111222 
SCCF RECON,ioos:station:SCCF:13:1,2019-01-10T13:00:00Z,26.5255,-82.0032,2.33,19.53,11111222 
SCCF RECON,ioos:station:SCCF:13:1,2019-01-10T14:00:00Z,26.5255,-82.0032,2.33,19.48,11111222 
SCCF RECON,ioos:station:SCCF:13:1,2019-01-10T15:00:00Z,26.5255,-82.0032,2.33,19.31,11111222 
SCCF RECON,ioos:station:SCCF:13:1,2019-01-10T16:00:00Z,26.5255,-82.0032,2.33,19.65,11111222 
SCCF RECON,ioos:station:SCCF:13:1,2019-01-10T17:00:00Z,26.5255,-82.0032,2.33,19.9,11111222 
SCCF RECON,ioos:station:SCCF:13:1,2019-01-10T18:00:00Z,26.5255,-82.0032,2.33,19.95,11111222 
SCCF RECON,ioos:station:SCCF:13:1,2019-01-10T19:00:00Z,26.5255,-82.0032,2.33,19.63,11111222 
SCCF RECON,ioos:station:SCCF:13:1,2019-01-10T20:00:00Z,26.5255,-82.0032,2.33,19.65,11111222 
SCCF RECON,ioos:station:SCCF:13:1,2019-01-10T21:00:00Z,26.5255,-82.0032,2.33,19.45,11111222 
SCCF RECON,ioos:station:SCCF:13:1,2019-01-10T22:00:00Z,26.5255,-82.0032,2.33,19.47,11111222 
SCCF RECON,ioos:station:SCCF:13:1,2019-01-11T05:00:00Z,26.5255,-82.0032,2.33,19.15,11111222 
SCCF RECON,ioos:station:SCCF:13:1,2019-01-11T06:00:00Z,26.5255,-82.0032,2.33,18.63,11111222 
SCCF RECON,ioos:station:SCCF:13:1,2019-01-11T07:00:00Z,26.5255,-82.0032,2.33,18.5,11111222 
SCCF RECON,ioos:station:SCCF:13:1,2019-01-11T08:00:00Z,26.5255,-82.0032,2.33,18.75,11111222 
SCCF RECON,ioos:station:SCCF:13:1,2019-01-11T09:00:00Z,26.5255,-82.0032,2.33,18.85,11111222 
SCCF RECON,ioos:station:SCCF:13:1,2019-01-11T10:00:00Z,26.5255,-82.0032,2.33,18.5,11111222 
SCCF RECON,ioos:station:SCCF:13:1,2019-01-11T11:00:00Z,26.5255,-82.0032,2.33,18.56,11111222 
SCCF RECON,ioos:station:SCCF:13:1,2019-01-11T12:00:00Z,26.5255,-82.0032,2.33,18.3,11111222 
SCCF RECON,ioos:station:SCCF:13:1,2019-01-11T13:00:00Z,26.5255,-82.0032,2.33,17.38,11111222 
SCCF RECON,ioos:station:SCCF:13:1,2019-01-11T14:00:00Z,26.5255,-82.0032,2.33,17.41,11111222 
SCCF RECON,ioos:station:SCCF:13:1,2019-01-11T15:00:00Z,26.5255,-82.0032,2.33,17.74,11111222 
SCCF RECON,ioos:station:SCCF:13:1,2019-01-11T16:00:00Z,26.5255,-82.0032,2.33,17.58,11111222 
SCCF RECON,ioos:station:SCCF:13:1,2019-01-11T17:00:00Z,26.5255,-82.0032,2.33,18.22,11111222 
SCCF RECON,ioos:station:SCCF:13:1,2019-01-11T18:00:00Z,26.5255,-82.0032,2.33,18.52,11111222 
SCCF RECON,ioos:station:SCCF:13:1,2019-01-11T19:00:00Z,26.5255,-82.0032,2.33,18.33,11111222 
SCCF RECON,ioos:station:SCCF:13:1,2019-01-11T20:00:00Z,26.5255,-82.0032,2.33,18.57,11111222 
SCCF RECON,ioos:station:SCCF:13:1,2019-01-11T21:00:00Z,26.5255,-82.0032,2.33,18.48,11111222 
SCCF RECON,ioos:station:SCCF:13:1,2019-01-11T22:00:00Z,26.5255,-82.0032,2.33,18.9,11111222 
SCCF RECON,ioos:station:SCCF:13:1,2019-01-12T05:00:00Z,26.5255,-82.0032,2.33,18.77,11111222 
SCCF RECON,ioos:station:SCCF:13:1,2019-01-12T06:00:00Z,26.5255,-82.0032,2.33,18.84,11111222 
SCCF RECON,ioos:station:SCCF:13:1,2019-01-12T07:00:00Z,26.5255,-82.0032,2.33,18.72,11111222 
SCCF RECON,ioos:station:SCCF:13:1,2019-01-12T08:00:00Z,26.5255,-82.0032,2.33,18.66,11111222 
SCCF RECON,ioos:station:SCCF:13:1,2019-01-12T09:00:00Z,26.5255,-82.0032,2.33,18.61,11111222 
SCCF RECON,ioos:station:SCCF:13:1,2019-01-12T10:00:00Z,26.5255,-82.0032,2.33,18.63,11111222 
SCCF RECON,ioos:station:SCCF:13:1,2019-01-12T11:00:00Z,26.5255,-82.0032,2.33,18.55,11111222 
SCCF RECON,ioos:station:SCCF:13:1,2019-01-12T12:00:00Z,26.5255,-82.0032,2.33,18.48,11111222 
SCCF RECON,ioos:station:SCCF:13:1,2019-01-12T13:00:00Z,26.5255,-82.0032,2.33,18.35,11111222 
SCCF RECON,ioos:station:SCCF:13:1,2019-01-12T14:00:00Z,26.5255,-82.0032,2.33,18.21,11111222 
SCCF RECON,ioos:station:SCCF:13:1,2019-01-12T15:00:00Z,26.5255,-82.0032,2.33,18.38,11111222 
SCCF RECON,ioos:station:SCCF:13:1,2019-01-12T16:00:00Z,26.5255,-82.0032,2.33,18.61,11111222 
SCCF RECON,ioos:station:SCCF:13:1,2019-01-12T17:00:00Z,26.5255,-82.0032,2.33,18.83,11111222 
SCCF RECON,ioos:station:SCCF:13:1,2019-01-12T18:00:00Z,26.5255,-82.0032,2.33,19.08,11111222 
SCCF RECON,ioos:station:SCCF:13:1,2019-01-12T19:00:00Z,26.5255,-82.0032,2.33,19.43,11111222 
SCCF RECON,ioos:station:SCCF:13:1,2019-01-12T20:00:00Z,26.5255,-82.0032,2.33,19.08,11111222 
SCCF RECON,ioos:station:SCCF:13:1,2019-01-12T21:00:00Z,26.5255,-82.0032,2.33,19.2,11111222 
SCCF RECON,ioos:station:SCCF:13:1,2019-01-12T22:00:00Z,26.5255,-82.0032,2.33,19.59,11111222 
SCCF RECON,ioos:station:SCCF:13:1,2019-01-13T05:00:00Z,26.5255,-82.0032,2.33,19.61,11111222 
SCCF RECON,ioos:station:SCCF:13:1,2019-01-13T06:00:00Z,26.5255,-82.0032,2.33,19.58,11111222 
SCCF RECON,ioos:station:SCCF:13:1,2019-01-13T07:00:00Z,26.5255,-82.0032,2.33,19.59,11111222 
SCCF RECON,ioos:station:SCCF:13:1,2019-01-13T08:00:00Z,26.5255,-82.0032,2.33,19.57,11111222 
SCCF RECON,ioos:station:SCCF:13:1,2019-01-13T09:00:00Z,26.5255,-82.0032,2.33,19.4,11111222 
SCCF RECON,ioos:station:SCCF:13:1,2019-01-13T10:00:00Z,26.5255,-82.0032,2.33,19.39,11111222 
SCCF RECON,ioos:station:SCCF:13:1,2019-01-13T11:00:00Z,26.5255,-82.0032,2.33,19.31,11111222 
SCCF RECON,ioos:station:SCCF:13:1,2019-01-13T12:00:00Z,26.5255,-82.0032,2.33,19.29,11111222 
SCCF RECON,ioos:station:SCCF:13:1,2019-01-13T13:00:00Z,26.5255,-82.0032,2.33,19.26,11111222 
SCCF RECON,ioos:station:SCCF:13:1,2019-01-13T14:00:00Z,26.5255,-82.0032,2.33,19.27,11111222 
SCCF RECON,ioos:station:SCCF:13:1,2019-01-13T15:00:00Z,26.5255,-82.0032,2.33,19.33,11111222 
SCCF RECON,ioos:station:SCCF:13:1,2019-01-13T16:00:00Z,26.5255,-82.0032,2.33,19.59,11111222 
SCCF RECON,ioos:station:SCCF:13:1,2019-01-13T17:00:00Z,26.5255,-82.0032,2.33,19.93,11111222 
SCCF RECON,ioos:station:SCCF:13:1,2019-01-13T18:00:00Z,26.5255,-82.0032,2.33,20.31,11111222 
SCCF RECON,ioos:station:SCCF:13:1,2019-01-13T19:00:00Z,26.5255,-82.0032,2.33,20.44,11111222 
SCCF RECON,ioos:station:SCCF:13:1,2019-01-13T20:00:00Z,26.5255,-82.0032,2.33,20.45,11111222 
SCCF RECON,ioos:station:SCCF:13:1,2019-01-13T21:00:00Z,26.5255,-82.0032,2.33,20.66,11111222 
SCCF RECON,ioos:station:SCCF:13:1,2019-01-13T22:00:00Z,26.5255,-82.0032,2.33,20.33,11111222 
SCCF RECON,ioos:station:SCCF:13:1,2019-01-14T05:00:00Z,26.5255,-82.0032,2.33,20.39,11111222 
SCCF RECON,ioos:station:SCCF:13:1,2019-01-14T06:00:00Z,26.5255,-82.0032,2.33,20.5,11111222 
SCCF RECON,ioos:station:SCCF:13:1,2019-01-14T07:00:00Z,26.5255,-82.0032,2.33,20.56,11111222 
SCCF RECON,ioos:station:SCCF:13:1,2019-01-14T08:00:00Z,26.5255,-82.0032,2.33,20.55,11111222 
SCCF RECON,ioos:station:SCCF:13:1,2019-01-14T09:00:00Z,26.5255,-82.0032,2.33,20.56,11111222 
SCCF RECON,ioos:station:SCCF:13:1,2019-01-14T10:00:00Z,26.5255,-82.0032,2.33,20.38,11111222 
SCCF RECON,ioos:station:SCCF:13:1,2019-01-14T11:00:00Z,26.5255,-82.0032,2.33,20.29,11111222 
SCCF RECON,ioos:station:SCCF:13:1,2019-01-14T12:00:00Z,26.5255,-82.0032,2.33,20.25,11111222 
SCCF RECON,ioos:station:SCCF:13:1,2019-01-14T13:00:00Z,26.5255,-82.0032,2.33,20.24,11111222 
SCCF RECON,ioos:station:SCCF:13:1,2019-01-14T14:00:00Z,26.5255,-82.0032,2.33,20.26,11111222 
SCCF RECON,ioos:station:SCCF:13:1,2019-01-14T15:00:00Z,26.5255,-82.0032,2.33,20.17,11111222 
SCCF RECON,ioos:station:SCCF:13:1,2019-01-14T16:00:00Z,26.5255,-82.0032,2.33,20.28,11111222 
SCCF RECON,ioos:station:SCCF:13:1,2019-01-14T17:00:00Z,26.5255,-82.0032,2.33,20.48,11111222 
SCCF RECON,ioos:station:SCCF:13:1,2019-01-14T18:00:00Z,26.5255,-82.0032,2.33,20.73,11111222 
SCCF RECON,ioos:station:SCCF:13:1,2019-01-14T19:00:00Z,26.5255,-82.0032,2.33,20.8,11111222 
SCCF RECON,ioos:station:SCCF:13:1,2019-01-14T20:00:00Z,26.5255,-82.0032,2.33,20.89,11111222 
SCCF RECON,ioos:station:SCCF:13:1,2019-01-14T21:00:00Z,26.5255,-82.0032,2.33,20.87,11111222 
SCCF RECON,ioos:station:SCCF:13:1,2019-01-14T23:00:00Z,26.5255,-82.0032,2.33,20.77,11111222 
SCCF RECON,ioos:station:SCCF:13:1,2019-01-15T05:00:00Z,26.5255,-82.0032,2.33,19.99,11111222 
SCCF RECON,ioos:station:SCCF:13:1,2019-01-15T06:00:00Z,26.5255,-82.0032,2.33,19.9,11111222 
SCCF RECON,ioos:station:SCCF:13:1,2019-01-15T07:00:00Z,26.5255,-82.0032,2.33,19.98,11111222 
SCCF RECON,ioos:station:SCCF:13:1,2019-01-15T08:00:00Z,26.5255,-82.0032,2.33,19.8,11111222 
SCCF RECON,ioos:station:SCCF:13:1,2019-01-15T09:00:00Z,26.5255,-82.0032,2.33,19.63,11111222 
SCCF RECON,ioos:station:SCCF:13:1,2019-01-15T10:00:00Z,26.5255,-82.0032,2.33,19.64,11111222 
SCCF RECON,ioos:station:SCCF:13:1,2019-01-15T11:00:00Z,26.5255,-82.0032,2.33,19.51,11111222 
SCCF RECON,ioos:station:SCCF:13:1,2019-01-15T12:00:00Z,26.5255,-82.0032,2.33,19.46,11111222 
SCCF RECON,ioos:station:SCCF:13:1,2019-01-15T13:00:00Z,26.5255,-82.0032,2.33,19.35,11111222 
SCCF RECON,ioos:station:SCCF:13:1,2019-01-15T14:00:00Z,26.5255,-82.0032,2.33,19.31,11111222 